Location: Jaite
(41.2884°N, 81.5737°W)
Time: 11:18:48
(UTC+00:00)

Cosmos 1400 Rocket - Pass Details

Date: 15 November 2025
Orbit: 476 x 514 km, 81.1° (Epoch: 11 December)

Event Time Altitude Azimuth Distance (km) Brightness Sun altitude
Exits shadow 10:36:48 -1° 357° (N) 2,638 6.2 -18.4°
Rises 10:36:57 0° 357° (N) 2,579 6.1 -18.4°
Reaches altitude 10° 10:39:10 10° 5° (N) 1,686 5.2 -18.0°
Maximum altitude 10:42:41 41° 77° (ENE) 713 3.9 -17.3°
Drops below altitude 10° 10:46:07 10° 149° (SSE) 1,654 5.8 -16.7°
Sets 10:48:17 0° 156° (SSE) 2,523 6.7 -16.3°
